Weather in Karakol

Kyrgyzstan     42°29′05″N   78°23′30″E
temp.,
°C
wind,
m/s
gust,
m/s
humid.,
%
clouds,
%
prec.,
mm/h
press.,
hPa
HPBL,
m
12 august, fri
fri1200:00+15ene346464 0.2 1012114
03:00+14wsw2371100 0.3 1013108
06:00+12ne1287100 6.1 101479
09:00+15ne337122 0.0 1014389
12:00+20nw124914 0.8 10121417
15:00+22n233980 1.5 10092325
18:00+20ne434121 1.9 10111434
21:00+14ese24610 0.0 101448
13 august, sat
sat1300:00+14sse22610 0.0 101319
03:00+13sse22600 0.0 101315
06:00+12sse22540 0.0 101411
09:00+18nw21440 0.0 1013673
12:00+22nw33330 0.0 10101945
15:00+24nw43283 0.0 10092197
18:00+22wnw43300 0.1 1010846
21:00+15se22520 0.0 101416
14 august, sun
sun1400:00+14sse22500 0.0 101314
03:00+14sse22490 0.0 101211
06:00+14sse22490 0.0 101312
09:00+20nw21370 0.0 1011490
12:00+25nw32270 0.0 10081416
15:00+27nw432341 0.0 10061542
18:00+23wnw333094 0.0 1008544
21:00+17se32510 0.1 101125
15 august, mon
mon1500:00+17sse22501 0.1 100917
03:00+16s11535 0.0 100911
06:00+16s22535 0.0 100911
09:00+21nw21401 0.0 1008464
12:00+26nw43293 0.1 10051382
15:00+27wnw542761 0.3 10031508
18:00+25n333210 0.6 10051195
21:00+17ssw12474 0.1 100812
16 august, tue
tue1600:00+17sse22525 0.1 100817
03:00+15ssw226298 0.1 100815
06:00+14s12725 1.0 100911
09:00+19nnw22550 0.3 1008447
12:00+25wnw45320 0.8 10052039
15:00+26wnw5726100 0.6 10032640
18:00+17nne555628 1.5 1010735
21:00+15s126698 0.5 101118